Regional Weather Roundup
Issued by NWS

Home | Current Version | Previous Version | Graphics & Text | Print | Product List | Glossary Off
Versions: 1 2 3 4 5 6 7 8 9 10 11 12 13 14 15 16 17 18 19 20 21 22 23 24 25 26 27 28 29 30 31 32 33 34 35 36 37 38 39 40 41 42 43 44 45 46 47 48 49 50

000
ASUS43 KTOP 281959
RWRKS

WEATHER ROUNDUP FOR KANSAS
NATIONAL WEATHER SERVICE GOODLAND KS
300 PM CDT FRI AUG 28 2015

NOTE:  "FAIR" INDICATES FEW OR NO CLOUDS BELOW 12,000 FEET WITH NO
SIGNIFICANT WEATHER AND/OR OBSTRUCTIONS TO VISIBILITY.

KSZ001>006-013>018-027>032-041>047-282100-
NORTHWEST KANSAS

CITY           SKY/WX    TMP DP  RH WIND       PRES   REMARKS
GOODLAND       MOSUNNY   92  47  21 N14G25    30.05S
HAYS           MOSUNNY   91  59  33 NW13G21   29.92F
HILL CITY      MOSUNNY   91  61  36 N15G25    29.96S
RUSSELL        SUNNY     89  63  41 N13G23    29.91S
$$

KSZ061>065-074>080-084>089-282100-
SOUTHWEST KANSAS

CITY           SKY/WX    TMP DP  RH WIND       PRES   REMARKS
DODGE CITY     SUNNY     89  54  30 NW15G21   29.98F
ELKHART          N/A     89  56  32 N8          N/A
GARDEN CITY    SUNNY     91  52  26 NW15      29.99F
GREAT BEND     SUNNY     91  57  31 N14       29.90F
LIBERAL        SUNNY     90  57  33 N12       30.04S
PRATT          SUNNY     88  63  42 CALM      29.95S
$$

KSZ066>073-081>083-090>101-282100-
SOUTHEAST KANSAS

CITY           SKY/WX    TMP DP  RH WIND       PRES   REMARKS
CHANUTE        PTSUNNY   74  67  78 S18       29.96F
COFFEYVILLE    CLOUDY    75  68  78 S3        29.97S
HUTCHINSON     MOSUNNY   92  68  45 VRB7      29.90F HX  96
NEWTON         MOSUNNY   88  68  51 SW15      29.92F
PARSONS        PTSUNNY   74  68  81 VRB6      29.97F
WICHITA INTL   MOSUNNY   87  69  54 S9G18     29.90F
WICHITA JABRA  SUNNY     86  69  56 SW10      29.91F
WINFIELD       MOSUNNY   84  66  54 S14       29.94F
$$

KSZ007>012-019>026-033>040-048>060-102>105-282100-
NORTHEAST KANSAS

CITY           SKY/WX    TMP DP  RH WIND       PRES   REMARKS
CONCORDIA      MOSUNNY   79  69  71 W9        29.90S
EMPORIA        SUNNY     82  68  62 S20G25    29.90F
LAWRENCE       PTSUNNY   80  67  64 S13G26    29.89F
MANHATTAN      MOSUNNY   87  71  58 SW9       29.85F
OLATHE IND     MOSUNNY   77  67  71 S21G26    29.93F
OLATHE EXE     MOSUNNY   75  66  73 S15       29.93F
SALINA         MOSUNNY   85  70  60 NW14      29.89R
TOPEKA BILLARD MOSUNNY   84  69  60 S17G25    29.88S
TOPEKA FORBES  MOSUNNY   83  68  60 S16       29.88F
$$



USA.gov is the U.S. government's official web portal to all federal, state and local government web resources and services.